www.pogodaiklimat.ru

Погода и климат >> Архив погоды >> Туркменистан >> Багтыярлык


ПОГОДА в Багтыярлыке

  • Прогноз погоды в Багтыярлыке
  • Монитор погоды в Багтыярлыке

АРХИВ ПОГОДЫ в Багтыярлыке

Время (UTC), дата Ветер
(напр.,м/с)
 
Видим.   Явления Облачность Т
(С)
Тd
(С)
f
(%)
Тe
(С)
Тes
(С)
Комфортность P
(гПа)
Po
(гПа)
Тmin
(С)
Tmax
(С)
R
(мм)
R24
(мм)
S
(см)
18 10.07 С 2 10 км ясно +33.4 +13.5 30 +34 +34 очень
жарко
999.6 978.8 +42.5
21 10.07 С 2 10 км ясно +29.0 +12.1 35 +30 +30 жарко 999.4 978.4
00 11.07 С 1 10 км ясно +26.0 +10.0 37 +27 +27 жарко 999.7 978.4
03 11.07 С 1 10 км ясно +26.8 +11.0 37 +28 +33 жарко 1001.0 979.7 +25.3
06 11.07 СВ 4 10 км ясно +40.4 +7.7 14 +38 +50 очень
жарко
1000.2 979.9 +25.3
09 11.07 С 3 10 км ясно +42.5 +6.2 11 +40 +56 опасность
солнечного
удара
999.8 979.6
12 11.07 СВ 4 10 км ясно +43.4 +5.1 10 +41 +45 опасность
перегрева
998.5 978.4
15 11.07 С 4 10 км ясно +42.0 +6.5 12 +39 +39 очень
жарко
998.6 978.4 +44.0
18 11.07 С 2 10 км ясно +33.1 +13.2 30 +34 +34 очень
жарко
999.7 978.9 +44.0
21 11.07 С 2 10 км ясно +28.1 +13.2 40 +30 +30 жарко 999.8 978.7
00 12.07 С 2 10 км ясно +25.8 +12.5 44 +28 +28 жарко 1000.0 978.7
03 12.07 СВ 1 10 км ясно +29.7 +11.4 32 +30 +35 жарко 1000.0 979.0 +25.4
06 12.07 В 2 10 км ясно +41.6 +12.7 18 +41 +58 опасность
перегрева
999.1 978.9 +25.4
09 12.07 В 4 10 км ясно +44.2 +5.9 10 +41 +54 опасность
перегрева
997.9 977.8
12 12.07 В 2 10 км ясно +44.2 +8.4 12 +42 +49 опасность
перегрева
997.1 977.0
15 12.07 СВ 3 10 км ясно +43.2 +7.6 12 +41 +41 опасность
перегрева
996.8 976.6 +45.3
18 12.07 С 3 10 км ясно +34.2 +9.2 22 +33 +33 жарко 997.8 977.1 +45.3
21 12.07 СЗ 2 10 км ясно +29.2 +9.9 30 +29 +29 жарко 998.2 977.2
00 13.07 С 1 10 км ясно +25.2 +12.4 45 +27 +27 жарко 998.7 977.4
03 13.07 С 1 10 км ясно +31.0 +12.4 32 +32 +37 жарко 998.8 977.9 +24.6
06 13.07 СЗ 1 10 км ясно +41.5 +9.4 15 +40 +60 опасность
солнечного
удара
999.0 978.8 +24.6
09 13.07 С 6 10 км ясно +45.1 +6.4 10 +43 +50 опасность
перегрева
998.2 978.1
12 13.07 СЗ 6 10 км ясно +45.9 +5.8 9 +43 +46 опасность
перегрева
997.0 977.0
15 13.07 С 3 10 км ясно +43.4 +6.2 11 +41 +41 опасность
перегрева
998.3 978.2 +46.3
18 13.07 С 1 10 км ясно +33.0 +12.6 29 +33 +33 жарко 998.6 977.8 +46.3
21 13.07 С 1 10 км ясно +27.4 +11.8 38 +29 +29 жарко 999.2 978.0
00 14.07 штиль 0 10 км ясно +23.4 +11.5 47 +26 +26 жарко 999.7 978.2
03 14.07 СЗ 1 10 км ясно +29.0 +9.5 30 +29 +34 жарко 1000.2 979.1 +23.0
06 14.07 С 3 10 км ясно +41.0 +7.7 13 +39 +53 опасность
солнечного
удара
999.4 979.1 +23.0
09 14.07 С 6 10 км ясно +44.0 +5.5 10 +41 +49 опасность
перегрева
998.6 978.5
12 14.07 С 6 10 км ясно +45.0 +2.7 8 +42 +45 опасность
перегрева
997.9 977.8
15 14.07 С 5 10 км ясно +43.0 +3.2 9 +40 +40 очень
жарко
997.6 977.4 +45.4
18 14.07 С 3 10 км ясно +34.7 +6.4 17 +32 +32 жарко 999.2 978.5 +45.4
21 14.07 С 4 10 км ясно +32.2 +7.3 21 +31 +31 жарко 999.2 978.3
00 15.07 штиль 0 10 км ясно +29.1 +9.7 30 +29 +29 жарко 999.4 978.4
03 15.07 С 6 10 км ясно +32.1 +10.4 26 +32 +33 жарко 1000.2 979.4 +27.1
06 15.07 С 5 10 км ясно +40.2 +5.8 12 +37 +46 очень
жарко
1000.3 979.9 +27.1
09 15.07 С 6 10 км ясно +44.4 +6.1 10 +42 +49 опасность
перегрева
999.4 979.3
12 15.07 С 6 10 км ясно +45.4 +0.6 7 +42 +45 опасность
перегрева
998.3 978.2
15 15.07 С 4 10 км ясно +43.0 -0.2 7 +39 +39 очень
жарко
998.1 977.9 +45.8
18 15.07 С 2 10 км ясно +35.2 +7.1 18 +33 +33 жарко 998.7 978.0 +45.8
21 15.07 С 1 10 км ясно +31.0 +5.1 20 +29 +29 жарко 999.1 978.1
00 16.07 С 1 10 км ясно +28.2 +6.5 25 +27 +27 жарко 999.1 977.9
03 16.07 С 1 10 км ясно +30.2 +5.3 21 +29 +34 жарко 999.2 978.2 +26.9
06 16.07 В 6 10 км ясно +42.0 +3.4 9 +39 +45 очень
жарко
999.6 979.4 +26.9
09 16.07 СВ 6 10 км ясно +44.6 +2.9 8 +41 +49 опасность
перегрева
999.1 979.0
12 16.07 СВ 6 10 км ясно +45.0 +2.7 8 +42 +44 опасность
перегрева
998.0 977.9
15 16.07 СВ 5 10 км ясно +42.6 +3.8 9 +39 +39 очень
жарко
997.4 977.2 +46.2
18 16.07 В 2 10 км ясно +31.6 +15.8 39 +34 +34 душно 999.9 979.1 +46.2
21 16.07 С 1 10 км ясно +26.6 +10.6 37 +27 +27 жарко 1000.4 979.1
00 17.07 С 1 10 км ясно +24.8 +8.6 36 +25 +25 комфорт 1000.5 979.1
03 17.07 С 1 10 км ясно +29.2 +8.0 26 +28 +34 жарко 1000.9 979.9 +24.0
06 17.07 СВ 5 10 км ясно +42.4 +4.5 10 +39 +48 очень
жарко
1000.3 980.1 +24.0
09 17.07 В 6 10 км ясно +44.4 +3.6 8 +41 +48 опасность
перегрева
999.9 979.8
12 17.07 В 6 10 км ясно +44.5 +2.1 8 +41 +44 опасность
перегрева
999.2 979.1
15 17.07 В 5 10 км ясно +42.5 +2.7 9 +39 +39 очень
жарко
999.2 979.0 +45.8

 

Местоположение метеостанции Багтыярлык (Марыйский велаят, Туркменистан): широта 38.08 долгота 62.80 высота над уровнем моря 185 м.

В архиве по умолчанию представлена погода в Багтыярлыке за последнюю неделю. Архивные данные за месяц целиком и за предыдущие месяцы, начиная с января 2011 года, Вы можете получить, выбрав интересующий диапазон дат из раскрывающегося списка и нажав кнопку "Ввод!".


*Определитесь, кто Вы:
робот инопланетянин человек

Внимание! Время в таблицах - всемирное. Для получения местного времени необходимо прибавить поправку, которая равна 5 ч.

Смотрите также архив погоды в соседних городах и на ближайших метеорологических станциях:

Погода в Байрамалы (Ахалский велаят, Туркменистан) (76 км)
Погода в Елетене (Марыйский велаят, Туркменистан) (93 км)
Погода в Туркменабаде (Лебапский велаят, Туркменистан) (131 км)
Погода в Бурдалыке (Лебапский велаят, Туркменистан) (144 км)
Погода в Каракуле (Бухарская область, Узбекистан) (182 км)
Погода в Атамурате (Лебапский велаят, Туркменистан) (212 км)
Погода в Теджене (Ахалский велаят, Туркменистан) (215 км)
Погода в Сарагте (Ахалский велаят, Туркменистан) (222 км)
Погода в Серахсе (Иран) (225 км)
Погода в Тагтабазаре (Марыйский велаят, Туркменистан) (237 км)

Пояснения к столбцам:

Ветер - указаны скорость ветра в м/с - средняя за 10 мин, порывы в срок и между сроками (в фигурных скобках) и направление, откуда дует ветер: С - северный, СВ - северо-восточный, В - восточный, ЮВ - юго-восточный, Ю - южный, ЮЗ - юго-западный, З - западный, СЗ - северо-западный.
Видимость - горизонтальная дальность видимости в метрах или километрах. При видимости от 1 до 10 км при отсутствии осадков обычно наблюдается дымка, при ухудшении видимости до 1 км и менее - туман. В сухую погоду видимость может ухудшаться дымом, пылью или мглою.
Явления - указаны атмосферные явления, наблюдавшиеся в срок или в последний час перед сроком; фигурными скобками обозначены явления, наблюдавшиеся между сроками (за 1-3 часа до срока); квадратными скобками обозначены град или гололедные отложения с указанием их диаметра в мм.
Облачность - указаны через наклонную черту общая и нижняя облачность в баллах и высота нижней границы облаков в метрах; квадратными скобками обозначены формы облаков: Ci - перистые, Cs - перисто-слоистые, Cc - перисто-кучевые, Ac - высококучевые, As - высокослоистые, Sc - слоисто-кучевые, Ns - слоисто-дождевые, Cu - кучевые, Cb - кучево-дождевые. Подробнее классификацию облаков см. в Атласе облаков (PDF).
T - Температура воздуха - температура, измеренная на высоте 2 м над землей.
Td - Температура точки росы - температура, при понижении до которой содержащийся в воздухе водяной пар достигнет насыщения.
f - Относительная влажность воздуха - влажноcть воздуха, измеренная на высоте 2 м над землей.
Te - Эффективная температура - температура, которую ощущает одетый по сезону человек в тени. Характеристика душности погоды. При расчете учитывается влияние влажности воздуха и скорости ветра на теплоощущения человека.
Tes - Эффективная температура на солнце - температура, которую ощущает человек, с поправкой на солнечный нагрев. Характеристика знойности погоды. Зависит от высоты солнца над горизонтом, облачности и скорости ветра. Ночью, в пасмурную погоду, а также при ветре 12 м/с и более поправка равна нулю.
P - Атмосферное давление - приведенное к уровню моря атмосферное давление.
Po - Атмосферное давление - измеренное на уровне метеостанции атмосферное давление.
Tmin - Минимальная температура - минимум температуры воздуха на высоте 2 м над землей.
Tmax - Максимальная температура - максимум температуры воздуха на высоте 2 м над землей.
R - Количество осадков - Количество выпавших осадков за период времени, мм. При наведении курсора мыши на число - период времени, за который выпало указанное количество осадков.
R24 - Количество осадков - Количество выпавших осадков за 24 часа, мм.
S - Снежный покров - Высота снежного покрова, см. При наведении курсора мыши на число - состояние снежного покрова и степень покрытия местности в баллах.